GFSNW_prec_precacc_162.txt.gz
Total_Precipitation_Accumulation
0.79 0.73 0.75 0.80 0.82 1.14 1.90 2.12 2.02 1.01 1.13 1.65 1.30 0.63 0.14 0.08 0.01 0.01 0.02 0.02 0.04 0.04 0.02 0.01 0.01 0.02 0.01 0.00 0.00 0.00 0.00 0.03 0.02 0.01 0.02 0.07 0.16 0.34 0.64 0.93 0.66 0.44 0.43 0.17
0.82 0.89 0.91 0.97 1.08 1.46 1.78 2.71 1.79 1.85 2.11 2.24 1.05 0.25 0.09 0.03 0.01 0.03 0.13 0.09 0.03 0.03 0.03 0.08 0.01 0.01 0.00 0.00 0.00 0.04 0.09 0.15 0.16 0.03 0.10 0.15 0.15 0.11 0.25 0.49 0.59 0.41 0.54 0.19
0.95 0.94 1.09 1.07 1.25 1.79 2.83 2.86 2.42 2.73 2.42 1.12 0.74 0.47 0.31 0.16 0.04 0.02 0.13 0.40 0.18 0.11 0.14 0.15 0.14 0.10 0.04 0.03 0.02 0.03 0.18 0.10 0.10 0.09 0.11 0.17 0.09 0.04 0.07 0.21 0.42 0.23 0.22 0.15
1.09 1.06 1.28 1.22 1.29 2.12 4.47 4.73 1.92 0.93 1.22 0.84 0.39 0.43 0.43 0.26 0.20 0.10 0.09 0.13 0.39 0.62 0.52 0.26 0.25 0.18 0.16 0.06 0.05 0.07 0.22 0.22 0.05 0.02 0.01 0.01 0.02 0.01 0.01 0.03 0.09 0.30 0.15 0.21
1.19 1.21 1.44 1.51 1.59 2.89 5.40 4.55 1.42 0.51 0.23 0.19 0.32 0.42 0.39 0.22 0.14 0.30 0.32 0.28 0.18 0.27 0.69 0.81 0.53 0.40 0.49 0.36 0.27 0.34 0.34 0.40 0.18 0.10 0.01 0.00 0.00 0.00 0.01 0.02 0.03 0.04 0.05 0.08
1.18 1.17 1.44 1.64 2.06 3.77 6.34 3.21 0.92 0.76 0.57 0.28 0.36 0.38 0.29 0.26 0.47 0.37 0.26 0.56 0.64 0.35 0.31 0.31 0.24 0.29 0.33 0.39 0.48 0.64 0.68 0.50 0.35 0.18 0.03 0.06 0.10 0.02 0.03 0.15 0.24 0.18 0.15 0.11
1.07 1.15 1.36 1.67 2.09 3.04 3.55 1.85 1.09 1.90 1.12 0.36 0.18 0.09 0.19 0.34 0.31 0.36 0.25 0.20 0.25 0.17 0.15 0.25 0.18 0.18 0.22 0.16 0.25 0.46 0.54 0.59 0.64 0.34 0.23 0.34 0.15 0.04 0.04 0.20 0.14 0.07 0.10 0.06
0.94 1.09 1.31 1.54 1.73 2.20 2.39 1.72 1.59 1.97 1.34 0.34 0.18 0.18 0.20 0.10 0.18 0.17 0.12 0.19 0.14 0.20 0.27 0.56 0.62 0.49 0.46 0.32 0.16 0.08 0.14 0.34 0.68 0.50 0.32 0.18 0.07 0.09 0.13 0.18 0.32 0.21 0.17 0.11
0.87 0.91 1.20 1.35 1.48 1.85 2.24 1.90 1.41 1.96 2.21 0.76 0.26 0.22 0.12 0.15 0.19 0.26 0.17 0.11 0.27 0.46 0.49 0.64 0.66 0.64 0.53 0.48 0.49 0.15 0.14 0.28 0.78 0.65 0.54 0.25 0.21 0.16 0.07 0.16 0.56 0.71 0.40 0.34
0.94 0.82 0.91 1.24 1.28 1.65 2.17 2.16 1.55 2.36 2.44 0.64 0.47 0.65 0.40 0.14 0.20 0.37 0.29 0.35 0.43 0.69 0.90 0.83 0.45 0.27 0.22 0.33 0.71 0.96 0.65 0.78 0.89 0.63 1.08 0.52 0.17 0.07 0.09 0.53 1.13 0.87 0.80 1.00
0.87 0.75 0.79 1.02 1.13 1.39 2.07 2.00 1.56 2.13 2.37 0.75 0.79 0.77 0.52 0.43 0.38 0.43 0.43 0.74 0.73 0.91 0.97 0.62 0.36 0.33 0.28 0.32 0.30 1.03 1.44 1.44 1.07 0.99 1.13 0.72 0.21 0.40 0.86 0.97 0.56 0.74 1.25 1.47
0.79 0.70 0.78 0.84 0.89 1.21 2.02 2.09 1.53 1.64 2.86 1.56 0.72 0.62 0.38 0.39 0.29 0.39 0.40 0.46 0.53 0.91 1.09 0.87 0.59 0.37 0.34 0.25 0.37 0.89 1.29 1.20 1.24 0.94 0.78 0.50 0.36 0.61 0.77 0.67 0.73 0.85 0.76 0.79
0.79 0.75 0.76 0.84 0.82 1.12 1.88 1.88 1.59 2.24 3.38 2.30 1.01 0.57 0.32 0.28 0.20 0.32 0.76 0.26 0.10 0.25 0.64 1.07 0.77 0.54 0.33 0.33 0.36 0.62 0.91 0.94 1.38 0.97 0.63 0.36 0.53 0.40 0.48 0.72 0.70 0.44 0.42 0.41
0.88 0.79 0.75 0.80 1.05 1.28 1.71 1.92 1.93 2.35 3.24 2.30 1.20 0.71 0.53 0.33 0.30 0.16 0.38 0.30 0.36 0.48 0.69 1.21 0.94 0.59 0.28 0.16 0.18 0.32 0.95 0.89 0.91 1.29 1.43 0.91 0.58 0.56 0.54 0.52 0.57 0.58 0.34 0.24
0.90 0.83 0.84 1.05 1.34 1.70 2.14 1.96 1.80 1.96 2.41 1.74 0.86 0.81 0.60 0.59 0.59 0.31 0.33 0.60 0.89 1.09 1.01 1.00 0.54 0.22 0.27 0.18 0.16 0.52 0.32 0.34 0.71 1.15 1.24 1.53 1.13 1.26 0.97 0.70 0.40 0.29 0.17 0.23
1.02 0.96 1.07 1.52 1.86 2.39 4.38 5.44 2.76 1.70 1.97 3.07 1.65 0.90 0.81 0.94 0.86 0.62 0.30 0.46 1.01 1.53 1.46 0.69 0.28 0.15 0.58 0.68 0.27 0.10 0.02 0.14 0.44 0.45 0.57 0.85 1.06 0.74 0.36 0.34 0.39 0.20 0.08 0.07
1.14 1.18 1.55 1.85 2.25 3.27 4.38 3.08 1.70 1.18 1.97 4.05 2.49 1.18 0.99 1.11 0.95 0.78 0.52 0.49 0.71 1.09 1.72 1.14 0.41 0.22 0.84 0.82 0.26 0.07 0.01 0.04 0.10 0.09 0.13 0.25 0.24 0.25 0.18 0.15 0.21 0.13 0.05 0.06
1.45 1.66 1.93 2.40 3.78 4.23 2.80 1.69 1.50 1.01 1.99 2.69 2.59 1.50 1.41 1.48 1.07 0.83 0.44 0.48 0.74 0.91 1.01 0.83 0.64 0.51 0.80 0.73 0.11 0.00 0.00 0.01 0.02 0.02 0.05 0.14 0.08 0.05 0.08 0.06 0.06 0.04 0.06 0.12
2.13 2.91 4.13 5.96 5.87 4.17 2.30 2.32 2.57 2.05 2.37 2.42 1.63 1.55 1.77 1.84 1.41 1.04 1.15 0.98 1.18 0.85 0.72 0.44 0.73 0.73 0.73 0.29 0.05 0.02 0.02 0.02 0.02 0.01 0.01 0.02 0.04 0.04 0.05 0.04 0.05 0.08 0.08 0.03
4.08 6.07 7.37 7.22 3.90 2.00 2.56 4.48 4.69 4.14 2.97 2.01 1.05 1.00 1.64 1.74 1.88 1.61 1.85 1.67 1.00 0.85 0.32 0.42 0.60 0.47 0.25 0.13 0.16 0.04 0.02 0.01 0.01 0.01 0.03 0.04 0.05 0.08 0.08 0.07 0.05 0.03 0.03 0.03
5.88 5.22 3.98 3.06 2.52 2.42 3.44 3.80 2.93 2.04 1.27 0.67 0.31 0.37 1.05 1.49 1.75 1.49 1.54 2.00 1.22 0.63 0.35 0.60 0.57 0.39 0.26 0.23 0.20 0.09 0.03 0.02 0.01 0.01 0.02 0.07 0.12 0.07 0.01 0.01 0.01 0.03 0.05 0.08
2.96 2.32 2.43 3.02 3.02 2.77 2.43 2.17 1.45 0.57 0.19 0.10 0.16 0.21 0.59 1.51 1.77 1.69 1.51 1.19 1.41 0.72 0.51 0.81 0.63 0.31 0.08 0.06 0.07 0.10 0.11 0.07 0.07 0.10 0.10 0.06 0.02 0.03 0.03 0.03 0.05 0.09 0.15 0.23
2.51 2.46 2.85 2.98 2.78 2.13 1.40 0.86 0.48 0.21 0.11 0.12 0.16 0.34 0.42 0.98 1.47 1.76 1.60 1.21 0.95 0.76 0.80 0.45 0.20 0.12 0.09 0.05 0.03 0.04 0.08 0.15 0.07 0.04 0.04 0.04 0.05 0.06 0.08 0.12 0.20 0.26 0.36 0.47
2.93 3.08 2.84 2.20 1.72 1.10 0.65 0.26 0.14 0.12 0.12 0.13 0.15 0.34 0.69 0.92 1.01 1.26 1.51 1.54 0.96 1.07 0.62 0.35 0.31 0.20 0.16 0.13 0.09 0.04 0.04 0.15 0.42 0.26 0.10 0.11 0.14 0.18 0.28 0.38 0.44 0.39 0.50 0.67
2.04 1.33 1.35 1.16 0.85 0.65 0.54 0.31 0.21 0.21 0.22 0.23 0.39 0.67 1.00 1.21 1.37 1.11 0.96 1.28 1.19 0.80 0.61 0.62 0.57 0.28 0.17 0.16 0.18 0.21 0.23 0.25 0.37 0.59 0.61 0.50 0.46 0.47 0.58 0.63 0.61 0.46 0.51 0.56
0.96 0.91 1.04 0.82 0.65 0.78 0.59 0.47 0.47 0.46 0.53 0.65 0.99 1.30 1.25 1.42 1.10 1.08 0.80 0.75 0.65 0.73 0.51 0.48 0.37 0.39 0.36 0.34 0.35 0.44 0.51 0.60 0.69 0.79 0.85 0.88 0.78 0.68 0.79 0.86 0.75 0.74 0.62 0.67
0.77 0.84 0.80 0.65 0.67 0.85 0.70 0.59 0.59 0.58 0.71 0.87 0.98 1.11 1.06 0.99 0.82 0.75 0.56 0.63 0.53 0.43 0.45 0.52 0.48 0.45 0.49 0.54 0.55 0.64 0.61 0.61 0.69 0.78 0.70 0.76 0.78 0.65 0.50 0.60 0.76 0.65 0.62 0.55

GFSNW_prec_precacc_168.txt.gz
Total_Precipitation_Accumulation
0.79 0.73 0.75 0.80 0.83 1.17 2.05 2.37 2.32 1.05 1.21 1.73 1.36 0.73 0.20 0.09 0.01 0.01 0.02 0.02 0.04 0.04 0.02 0.01 0.01 0.02 0.01 0.00 0.00 0.00 0.00 0.03 0.03 0.01 0.02 0.07 0.16 0.34 0.64 0.93 0.66 0.44 0.44 0.18
0.83 0.89 0.92 0.97 1.09 1.51 1.88 3.01 2.04 1.98 2.30 2.32 1.08 0.27 0.11 0.05 0.01 0.04 0.14 0.10 0.04 0.04 0.05 0.12 0.01 0.01 0.00 0.00 0.00 0.04 0.09 0.17 0.20 0.06 0.11 0.16 0.15 0.11 0.25 0.49 0.60 0.42 0.55 0.19
0.96 0.94 1.10 1.07 1.26 1.87 3.03 3.06 2.65 2.91 2.74 1.40 0.78 0.48 0.32 0.19 0.05 0.04 0.16 0.44 0.22 0.14 0.16 0.18 0.16 0.11 0.05 0.03 0.03 0.03 0.18 0.12 0.14 0.11 0.11 0.17 0.10 0.04 0.07 0.23 0.48 0.25 0.22 0.15
1.10 1.08 1.30 1.24 1.31 2.21 4.67 5.19 2.21 1.01 1.37 1.07 0.53 0.46 0.45 0.26 0.20 0.11 0.12 0.19 0.43 0.68 0.64 0.32 0.28 0.24 0.21 0.08 0.06 0.08 0.25 0.32 0.08 0.03 0.01 0.02 0.03 0.01 0.01 0.04 0.11 0.31 0.16 0.21
1.22 1.27 1.49 1.59 1.67 3.04 5.70 4.92 1.75 0.71 0.28 0.20 0.38 0.54 0.47 0.25 0.14 0.31 0.34 0.34 0.20 0.30 0.74 0.92 0.67 0.59 0.71 0.53 0.37 0.41 0.46 0.59 0.25 0.15 0.02 0.01 0.02 0.01 0.01 0.02 0.03 0.04 0.05 0.08
1.20 1.25 1.59 1.74 2.22 4.08 6.81 3.59 1.15 0.94 0.73 0.33 0.40 0.43 0.32 0.28 0.48 0.38 0.27 0.59 0.69 0.41 0.34 0.36 0.27 0.35 0.44 0.53 0.60 0.77 0.81 0.62 0.51 0.31 0.04 0.10 0.21 0.04 0.03 0.15 0.24 0.18 0.15 0.11
1.09 1.18 1.46 1.85 2.24 3.37 3.92 2.13 1.28 2.14 1.35 0.48 0.22 0.09 0.20 0.34 0.32 0.38 0.28 0.26 0.31 0.21 0.17 0.28 0.21 0.23 0.27 0.21 0.30 0.53 0.62 0.63 0.78 0.47 0.29 0.55 0.21 0.04 0.04 0.20 0.14 0.07 0.10 0.06
0.97 1.13 1.37 1.65 1.93 2.46 2.71 1.93 1.96 2.34 1.54 0.40 0.20 0.20 0.21 0.12 0.20 0.18 0.13 0.21 0.17 0.25 0.31 0.61 0.65 0.51 0.48 0.37 0.21 0.11 0.18 0.40 0.76 0.62 0.41 0.22 0.08 0.09 0.13 0.18 0.32 0.21 0.17 0.11
0.93 0.96 1.26 1.40 1.54 2.04 2.54 2.12 1.58 2.34 2.61 0.92 0.31 0.24 0.14 0.17 0.21 0.27 0.18 0.12 0.31 0.52 0.57 0.73 0.72 0.66 0.54 0.48 0.50 0.16 0.18 0.37 0.93 0.82 0.64 0.28 0.21 0.16 0.07 0.16 0.56 0.71 0.40 0.34
0.96 0.86 0.97 1.30 1.34 1.73 2.31 2.32 1.66 2.50 2.64 0.71 0.54 0.76 0.45 0.19 0.25 0.40 0.30 0.36 0.46 0.78 1.04 0.94 0.50 0.28 0.23 0.33 0.71 0.97 0.70 0.91 1.10 0.76 1.14 0.53 0.17 0.07 0.09 0.53 1.13 0.87 0.80 1.00
0.88 0.77 0.84 1.08 1.22 1.49 2.15 2.08 1.62 2.20 2.45 0.77 0.80 0.80 0.58 0.48 0.47 0.53 0.53 0.87 0.81 0.94 1.06 0.76 0.47 0.38 0.28 0.32 0.30 1.03 1.45 1.47 1.12 1.10 1.25 0.75 0.21 0.40 0.86 0.97 0.56 0.74 1.25 1.47
0.79 0.72 0.82 0.88 0.98 1.30 2.10 2.14 1.58 1.72 2.95 1.58 0.73 0.63 0.39 0.40 0.31 0.44 0.51 0.72 0.70 1.01 1.15 0.91 0.62 0.48 0.45 0.28 0.39 0.90 1.29 1.21 1.25 0.95 0.80 0.50 0.36 0.61 0.77 0.67 0.73 0.85 0.76 0.79
0.82 0.75 0.77 0.87 0.88 1.21 1.94 1.90 1.64 2.32 3.49 2.36 1.03 0.57 0.32 0.28 0.21 0.33 0.82 0.32 0.22 0.49 0.86 1.17 0.84 0.58 0.35 0.38 0.40 0.63 0.91 0.94 1.39 0.98 0.63 0.37 0.54 0.41 0.48 0.72 0.70 0.44 0.42 0.41
0.90 0.79 0.75 0.81 1.09 1.36 1.76 1.94 1.95 2.39 3.34 2.37 1.20 0.71 0.53 0.33 0.30 0.17 0.38 0.31 0.38 0.57 0.91 1.46 1.06 0.62 0.29 0.16 0.18 0.33 0.96 0.89 0.91 1.29 1.43 0.91 0.58 0.57 0.54 0.52 0.57 0.58 0.34 0.24
0.91 0.84 0.84 1.05 1.37 1.79 2.20 1.98 1.81 1.97 2.52 1.89 0.91 0.81 0.60 0.59 0.59 0.31 0.34 0.61 0.91 1.28 1.18 1.11 0.60 0.24 0.29 0.19 0.17 0.52 0.32 0.34 0.71 1.15 1.24 1.54 1.13 1.26 0.97 0.70 0.40 0.29 0.17 0.23
1.03 0.97 1.09 1.54 1.88 2.44 4.43 5.46 2.76 1.70 2.03 3.15 1.67 0.90 0.81 0.94 0.86 0.63 0.31 0.48 1.13 1.81 1.70 0.81 0.31 0.15 0.59 0.70 0.28 0.10 0.02 0.15 0.45 0.47 0.58 0.85 1.06 0.74 0.36 0.34 0.39 0.20 0.08 0.07
1.15 1.19 1.61 1.91 2.32 3.30 4.39 3.09 1.81 1.25 2.09 4.36 2.60 1.20 0.99 1.12 0.96 0.79 0.56 0.59 0.88 1.35 2.06 1.36 0.46 0.23 0.85 0.84 0.27 0.07 0.01 0.04 0.11 0.11 0.14 0.25 0.24 0.25 0.18 0.15 0.21 0.13 0.05 0.06
1.46 1.67 2.00 2.50 3.88 4.30 2.81 1.73 1.67 1.25 2.16 2.90 2.79 1.53 1.42 1.52 1.15 0.97 0.61 0.71 0.99 1.19 1.25 1.01 0.76 0.60 0.85 0.75 0.11 0.00 0.00 0.01 0.02 0.02 0.05 0.14 0.08 0.05 0.08 0.06 0.06 0.04 0.06 0.12
2.15 2.97 4.30 6.13 5.98 4.22 2.30 2.34 2.70 2.19 2.50 2.59 1.67 1.57 1.87 2.09 1.69 1.33 1.43 1.22 1.41 1.01 0.82 0.50 0.83 0.89 0.84 0.30 0.05 0.02 0.02 0.03 0.02 0.01 0.01 0.02 0.04 0.04 0.05 0.04 0.05 0.08 0.08 0.03
4.24 6.48 7.81 7.38 3.92 2.01 2.59 4.67 5.20 4.41 3.08 2.07 1.12 1.09 1.81 2.05 2.18 1.86 2.00 1.76 1.09 0.92 0.34 0.45 0.66 0.51 0.25 0.13 0.16 0.04 0.02 0.01 0.01 0.01 0.03 0.04 0.05 0.08 0.08 0.07 0.05 0.03 0.03 0.03
6.23 5.60 4.10 3.08 2.54 2.48 3.51 4.01 3.30 2.32 1.41 0.68 0.32 0.47 1.22 1.70 1.89 1.57 1.58 2.03 1.24 0.66 0.37 0.63 0.59 0.40 0.26 0.23 0.20 0.09 0.03 0.02 0.01 0.01 0.02 0.07 0.12 0.07 0.01 0.01 0.01 0.03 0.05 0.08
3.02 2.37 2.49 3.07 3.06 2.83 2.53 2.19 1.49 0.62 0.21 0.10 0.17 0.29 0.73 1.60 1.87 1.77 1.54 1.20 1.42 0.72 0.51 0.83 0.64 0.31 0.08 0.06 0.07 0.10 0.11 0.07 0.07 0.10 0.10 0.06 0.02 0.03 0.03 0.03 0.05 0.09 0.15 0.23
2.55 2.53 2.89 3.01 2.81 2.16 1.41 0.86 0.48 0.21 0.11 0.12 0.16 0.38 0.46 0.99 1.49 1.79 1.61 1.22 0.95 0.76 0.80 0.45 0.20 0.12 0.09 0.05 0.03 0.04 0.08 0.15 0.07 0.04 0.04 0.04 0.05 0.06 0.08 0.12 0.20 0.26 0.36 0.47
2.99 3.14 2.85 2.23 1.73 1.10 0.65 0.26 0.14 0.12 0.12 0.13 0.15 0.35 0.69 0.92 1.01 1.26 1.51 1.54 0.96 1.07 0.62 0.35 0.31 0.20 0.16 0.13 0.09 0.04 0.04 0.15 0.42 0.26 0.10 0.11 0.14 0.18 0.28 0.38 0.44 0.39 0.50 0.67
2.06 1.35 1.36 1.16 0.85 0.65 0.54 0.31 0.21 0.21 0.22 0.23 0.39 0.67 1.00 1.21 1.37 1.11 0.96 1.28 1.19 0.80 0.61 0.62 0.57 0.28 0.17 0.16 0.18 0.21 0.23 0.25 0.37 0.59 0.61 0.50 0.46 0.47 0.58 0.63 0.61 0.46 0.51 0.56
0.97 0.91 1.04 0.82 0.65 0.78 0.59 0.47 0.47 0.46 0.53 0.65 0.99 1.30 1.25 1.42 1.10 1.08 0.80 0.75 0.65 0.73 0.51 0.48 0.37 0.39 0.36 0.34 0.35 0.44 0.51 0.60 0.69 0.79 0.85 0.88 0.78 0.68 0.79 0.86 0.75 0.74 0.62 0.67
0.78 0.85 0.80 0.65 0.67 0.85 0.70 0.59 0.59 0.58 0.71 0.87 0.98 1.11 1.06 0.99 0.82 0.75 0.56 0.63 0.53 0.43 0.46 0.52 0.48 0.45 0.49 0.54 0.55 0.64 0.61 0.61 0.69 0.78 0.70 0.76 0.78 0.65 0.50 0.60 0.76 0.65 0.62 0.55

GFSNW_prec_precacc_171.txt.gz
Total_Precipitation_Accumulation
0.79 0.73 0.75 0.80 0.83 1.17 2.07 2.45 2.35 1.06 1.32 1.82 1.40 0.76 0.20 0.09 0.01 0.01 0.02 0.03 0.04 0.05 0.02 0.03 0.04 0.04 0.03 0.00 0.00 0.00 0.00 0.04 0.03 0.01 0.02 0.07 0.16 0.34 0.64 0.93 0.66 0.44 0.44 0.18
0.83 0.89 0.92 0.97 1.09 1.51 1.94 3.05 2.05 2.00 2.38 2.46 1.12 0.27 0.11 0.05 0.01 0.04 0.14 0.10 0.04 0.04 0.05 0.14 0.04 0.04 0.01 0.01 0.01 0.04 0.09 0.19 0.22 0.06 0.11 0.16 0.15 0.11 0.25 0.49 0.60 0.44 0.56 0.19
0.96 0.94 1.10 1.07 1.26 1.87 3.09 3.09 2.67 2.93 2.78 1.48 0.91 0.54 0.33 0.19 0.05 0.04 0.16 0.45 0.23 0.16 0.18 0.19 0.18 0.11 0.05 0.04 0.03 0.03 0.19 0.14 0.16 0.11 0.11 0.17 0.10 0.04 0.07 0.23 0.49 0.26 0.22 0.15
1.10 1.08 1.30 1.24 1.32 2.24 4.73 5.23 2.23 1.02 1.39 1.08 0.57 0.53 0.50 0.29 0.21 0.11 0.14 0.24 0.47 0.70 0.67 0.33 0.30 0.25 0.24 0.11 0.07 0.10 0.27 0.36 0.08 0.03 0.01 0.02 0.03 0.01 0.01 0.04 0.12 0.31 0.16 0.21
1.22 1.27 1.49 1.59 1.68 3.10 5.79 4.95 1.75 0.73 0.29 0.20 0.42 0.61 0.60 0.32 0.16 0.31 0.35 0.37 0.21 0.35 0.81 0.97 0.71 0.63 0.75 0.58 0.41 0.43 0.52 0.73 0.34 0.22 0.02 0.01 0.02 0.02 0.01 0.02 0.03 0.04 0.05 0.08
1.20 1.25 1.59 1.75 2.24 4.13 6.88 3.62 1.17 0.99 0.75 0.34 0.42 0.46 0.38 0.35 0.55 0.44 0.27 0.60 0.72 0.45 0.36 0.41 0.34 0.43 0.51 0.58 0.62 0.79 0.86 0.67 0.59 0.38 0.04 0.12 0.30 0.07 0.03 0.15 0.24 0.18 0.15 0.11
1.09 1.19 1.46 1.87 2.27 3.42 3.96 2.15 1.32 2.19 1.40 0.50 0.23 0.09 0.20 0.35 0.34 0.42 0.29 0.28 0.33 0.22 0.19 0.33 0.26 0.31 0.38 0.36 0.43 0.56 0.66 0.67 0.85 0.52 0.31 0.66 0.23 0.04 0.04 0.20 0.14 0.07 0.10 0.06
0.98 1.14 1.38 1.67 1.97 2.50 2.76 1.95 1.99 2.38 1.57 0.44 0.24 0.22 0.24 0.14 0.21 0.20 0.14 0.22 0.17 0.29 0.36 0.67 0.71 0.56 0.56 0.40 0.25 0.14 0.19 0.45 0.88 0.73 0.49 0.25 0.08 0.09 0.13 0.18 0.32 0.21 0.17 0.11
0.94 0.99 1.29 1.43 1.57 2.08 2.61 2.16 1.62 2.42 2.79 1.04 0.36 0.28 0.17 0.21 0.26 0.32 0.19 0.12 0.31 0.56 0.63 0.82 0.79 0.68 0.57 0.49 0.52 0.18 0.20 0.38 0.97 0.88 0.72 0.33 0.21 0.16 0.07 0.16 0.56 0.71 0.40 0.34
0.99 0.88 1.00 1.35 1.38 1.76 2.36 2.42 1.77 2.69 2.79 0.80 0.67 0.87 0.54 0.23 0.27 0.43 0.33 0.38 0.49 0.84 1.15 1.08 0.57 0.31 0.23 0.34 0.73 0.99 0.72 0.96 1.16 0.78 1.17 0.54 0.17 0.07 0.09 0.53 1.13 0.87 0.80 1.00
0.90 0.79 0.85 1.12 1.26 1.52 2.20 2.16 1.77 2.41 2.59 0.82 0.86 0.86 0.62 0.53 0.52 0.58 0.59 0.94 0.86 1.02 1.15 0.81 0.50 0.40 0.29 0.33 0.30 1.05 1.47 1.50 1.16 1.15 1.32 0.78 0.21 0.40 0.86 0.97 0.56 0.74 1.25 1.47
0.82 0.72 0.82 0.89 1.00 1.31 2.13 2.26 1.66 1.83 3.09 1.62 0.77 0.65 0.40 0.41 0.33 0.48 0.58 0.78 0.73 1.08 1.22 0.95 0.65 0.50 0.47 0.30 0.40 0.91 1.32 1.23 1.27 0.97 0.81 0.50 0.36 0.61 0.77 0.67 0.73 0.85 0.76 0.79
0.85 0.77 0.78 0.87 0.88 1.23 1.95 1.95 1.77 2.39 3.53 2.37 1.03 0.57 0.32 0.28 0.21 0.33 0.85 0.35 0.24 0.51 0.92 1.28 0.93 0.63 0.36 0.44 0.48 0.68 0.96 0.96 1.42 1.01 0.64 0.37 0.54 0.41 0.48 0.72 0.70 0.44 0.42 0.41
0.94 0.81 0.76 0.81 1.09 1.37 1.77 1.98 2.00 2.43 3.39 2.40 1.21 0.71 0.53 0.33 0.30 0.17 0.39 0.31 0.40 0.58 0.93 1.56 1.15 0.71 0.33 0.19 0.20 0.36 1.04 0.98 0.94 1.31 1.44 0.91 0.58 0.57 0.54 0.52 0.57 0.58 0.34 0.24
0.93 0.85 0.84 1.05 1.37 1.83 2.25 2.04 1.85 2.01 2.58 1.93 0.93 0.81 0.60 0.59 0.59 0.31 0.34 0.61 0.92 1.33 1.23 1.15 0.65 0.28 0.32 0.21 0.19 0.54 0.33 0.36 0.73 1.17 1.26 1.55 1.13 1.27 0.98 0.71 0.41 0.30 0.17 0.23
1.03 0.97 1.09 1.54 1.88 2.47 4.50 5.50 2.80 1.73 2.07 3.19 1.68 0.91 0.81 0.94 0.86 0.63 0.31 0.49 1.14 1.86 1.74 0.83 0.32 0.16 0.64 0.74 0.29 0.10 0.02 0.15 0.45 0.48 0.60 0.87 1.07 0.76 0.39 0.35 0.39 0.20 0.08 0.07
1.15 1.19 1.61 1.92 2.33 3.31 4.44 3.13 1.84 1.26 2.11 4.40 2.62 1.23 1.00 1.12 0.98 0.80 0.56 0.60 0.92 1.38 2.09 1.38 0.46 0.24 0.88 0.85 0.27 0.07 0.01 0.04 0.11 0.12 0.18 0.30 0.26 0.26 0.19 0.15 0.21 0.13 0.05 0.06
1.46 1.67 2.01 2.53 3.91 4.33 2.83 1.74 1.68 1.33 2.22 2.94 2.83 1.60 1.47 1.53 1.16 0.98 0.61 0.73 1.02 1.23 1.28 1.03 0.77 0.62 0.89 0.77 0.11 0.00 0.00 0.01 0.02 0.02 0.06 0.16 0.10 0.06 0.08 0.06 0.06 0.04 0.06 0.12
2.15 2.97 4.32 6.17 6.02 4.25 2.32 2.34 2.71 2.23 2.54 2.70 1.72 1.62 1.93 2.09 1.70 1.35 1.45 1.25 1.49 1.06 0.87 0.52 0.86 0.92 0.87 0.31 0.05 0.02 0.02 0.03 0.02 0.01 0.01 0.02 0.04 0.04 0.05 0.04 0.05 0.08 0.08 0.03
4.24 6.50 7.86 7.45 3.94 2.03 2.60 4.69 5.23 4.45 3.11 2.10 1.15 1.13 1.86 2.06 2.20 1.90 2.06 1.83 1.17 0.99 0.38 0.46 0.70 0.52 0.25 0.13 0.16 0.04 0.02 0.01 0.01 0.01 0.03 0.04 0.05 0.08 0.08 0.07 0.05 0.03 0.03 0.03
6.24 5.62 4.17 3.14 2.56 2.54 3.57 4.06 3.34 2.36 1.48 0.70 0.32 0.47 1.24 1.71 1.92 1.63 1.65 2.14 1.30 0.73 0.42 0.67 0.63 0.40 0.26 0.23 0.20 0.09 0.03 0.02 0.01 0.01 0.02 0.07 0.12 0.07 0.01 0.01 0.01 0.03 0.05 0.08
3.02 2.41 2.58 3.12 3.10 2.88 2.61 2.25 1.56 0.72 0.26 0.13 0.18 0.31 0.75 1.63 1.90 1.85 1.59 1.27 1.46 0.76 0.53 0.88 0.65 0.31 0.08 0.06 0.07 0.10 0.11 0.07 0.07 0.10 0.10 0.06 0.02 0.03 0.03 0.03 0.05 0.09 0.15 0.23
2.58 2.66 3.04 3.04 2.83 2.20 1.47 0.88 0.49 0.24 0.15 0.15 0.20 0.48 0.53 1.04 1.58 1.91 1.68 1.27 0.98 0.76 0.81 0.46 0.20 0.12 0.09 0.05 0.03 0.04 0.08 0.15 0.07 0.04 0.04 0.04 0.05 0.06 0.08 0.12 0.20 0.26 0.36 0.47
3.06 3.21 2.90 2.24 1.74 1.11 0.66 0.27 0.16 0.14 0.14 0.15 0.20 0.45 0.74 0.95 1.04 1.29 1.53 1.55 0.96 1.07 0.62 0.35 0.31 0.20 0.16 0.13 0.09 0.04 0.04 0.15 0.42 0.26 0.10 0.11 0.14 0.18 0.28 0.38 0.44 0.39 0.50 0.67
2.13 1.38 1.38 1.16 0.86 0.65 0.54 0.31 0.21 0.21 0.22 0.24 0.42 0.72 1.04 1.25 1.39 1.11 0.96 1.28 1.19 0.80 0.61 0.62 0.57 0.28 0.17 0.16 0.18 0.21 0.23 0.25 0.37 0.59 0.61 0.50 0.46 0.47 0.58 0.63 0.61 0.46 0.51 0.56
1.00 0.91 1.04 0.82 0.66 0.78 0.59 0.47 0.47 0.46 0.53 0.65 1.01 1.31 1.26 1.43 1.10 1.08 0.80 0.75 0.65 0.73 0.51 0.48 0.37 0.39 0.36 0.34 0.35 0.44 0.51 0.60 0.69 0.79 0.85 0.88 0.78 0.68 0.79 0.86 0.75 0.74 0.62 0.67
0.78 0.85 0.80 0.65 0.68 0.85 0.71 0.60 0.59 0.58 0.71 0.89 0.99 1.12 1.07 1.00 0.82 0.75 0.56 0.63 0.53 0.43 0.46 0.52 0.48 0.45 0.49 0.54 0.55 0.64 0.61 0.61 0.69 0.78 0.70 0.76 0.78 0.65 0.50 0.60 0.76 0.65 0.62 0.55

GFSNW_prec_precacc_174.txt.gz
Total_Precipitation_Accumulation
0.79 0.73 0.75 0.80 0.83 1.17 2.08 2.51 2.38 1.08 1.42 1.92 1.43 0.77 0.20 0.09 0.01 0.01 0.02 0.03 0.05 0.05 0.03 0.03 0.05 0.07 0.07 0.04 0.02 0.00 0.00 0.06 0.03 0.01 0.02 0.07 0.16 0.34 0.64 0.93 0.66 0.44 0.44 0.18
0.83 0.89 0.92 0.97 1.09 1.51 1.98 3.12 2.06 2.02 2.46 2.55 1.20 0.28 0.11 0.05 0.01 0.04 0.14 0.10 0.04 0.04 0.05 0.14 0.05 0.05 0.01 0.06 0.16 0.14 0.13 0.33 0.31 0.08 0.11 0.16 0.15 0.11 0.25 0.49 0.60 0.44 0.56 0.19
0.96 0.94 1.10 1.07 1.26 1.87 3.12 3.14 2.68 2.94 2.84 1.51 0.95 0.61 0.37 0.20 0.05 0.04 0.16 0.45 0.24 0.17 0.18 0.20 0.18 0.12 0.05 0.04 0.13 0.11 0.27 0.31 0.29 0.19 0.12 0.18 0.15 0.08 0.08 0.23 0.50 0.26 0.22 0.15
1.10 1.08 1.30 1.24 1.32 2.25 4.75 5.26 2.23 1.02 1.40 1.08 0.58 0.54 0.56 0.34 0.25 0.11 0.14 0.25 0.47 0.72 0.69 0.35 0.31 0.26 0.24 0.11 0.09 0.13 0.33 0.48 0.11 0.05 0.02 0.02 0.04 0.04 0.02 0.05 0.13 0.31 0.16 0.21
1.23 1.27 1.50 1.60 1.68 3.11 5.82 4.96 1.76 0.73 0.29 0.20 0.44 0.63 0.61 0.32 0.17 0.32 0.36 0.39 0.23 0.36 0.83 0.99 0.72 0.65 0.78 0.60 0.45 0.53 0.60 0.78 0.37 0.27 0.03 0.01 0.02 0.02 0.01 0.02 0.04 0.05 0.06 0.09
1.20 1.25 1.59 1.76 2.25 4.15 6.88 3.63 1.18 1.03 0.77 0.34 0.43 0.47 0.39 0.36 0.56 0.45 0.28 0.63 0.77 0.49 0.38 0.41 0.35 0.46 0.55 0.63 0.67 0.87 0.97 0.77 0.65 0.42 0.04 0.13 0.35 0.08 0.03 0.15 0.24 0.18 0.15 0.12
1.09 1.19 1.47 1.87 2.28 3.43 3.97 2.17 1.36 2.27 1.42 0.51 0.23 0.09 0.20 0.35 0.34 0.44 0.31 0.30 0.39 0.28 0.21 0.35 0.27 0.33 0.43 0.44 0.53 0.72 0.82 0.75 0.97 0.63 0.35 0.76 0.26 0.04 0.04 0.20 0.14 0.07 0.10 0.06
0.98 1.14 1.38 1.68 1.97 2.52 2.79 1.99 2.05 2.46 1.62 0.45 0.24 0.22 0.24 0.14 0.21 0.20 0.14 0.22 0.18 0.32 0.47 0.86 0.83 0.58 0.58 0.44 0.31 0.29 0.43 0.65 1.05 0.84 0.56 0.28 0.08 0.09 0.13 0.18 0.32 0.21 0.17 0.11
0.94 0.99 1.30 1.45 1.59 2.09 2.65 2.19 1.69 2.49 2.85 1.05 0.36 0.29 0.18 0.23 0.29 0.34 0.20 0.12 0.31 0.60 0.73 0.89 0.82 0.69 0.58 0.50 0.53 0.20 0.25 0.42 1.03 0.91 0.74 0.34 0.21 0.16 0.07 0.16 0.57 0.71 0.40 0.34
0.99 0.89 1.01 1.36 1.40 1.79 2.41 2.44 1.80 2.74 2.83 0.80 0.67 0.89 0.59 0.28 0.31 0.47 0.35 0.40 0.52 0.87 1.22 1.16 0.62 0.33 0.24 0.35 0.74 1.02 0.79 1.15 1.34 0.85 1.21 0.55 0.17 0.07 0.10 0.53 1.14 0.87 0.80 1.00
0.91 0.79 0.86 1.13 1.29 1.56 2.26 2.18 1.78 2.46 2.68 0.85 0.87 0.88 0.67 0.62 0.70 0.69 0.62 0.99 0.96 1.16 1.24 0.86 0.52 0.44 0.30 0.35 0.30 1.06 1.51 1.54 1.20 1.23 1.39 0.81 0.21 0.40 0.86 0.97 0.56 0.74 1.25 1.47
0.84 0.74 0.83 0.89 1.00 1.34 2.18 2.28 1.70 1.91 3.28 1.72 0.80 0.68 0.40 0.42 0.39 0.69 0.74 0.87 0.83 1.23 1.39 1.06 0.77 0.56 0.49 0.32 0.43 0.92 1.34 1.26 1.29 0.98 0.82 0.50 0.36 0.61 0.77 0.67 0.73 0.85 0.76 0.79
0.88 0.79 0.79 0.87 0.88 1.23 1.97 1.98 1.86 2.62 3.77 2.43 1.04 0.58 0.32 0.28 0.21 0.42 1.05 0.51 0.37 0.62 0.96 1.30 0.95 0.67 0.39 0.46 0.49 0.69 0.96 0.96 1.47 1.07 0.65 0.37 0.54 0.41 0.53 0.79 0.72 0.44 0.42 0.41
0.95 0.83 0.77 0.81 1.09 1.37 1.79 2.01 2.11 2.67 3.61 2.44 1.21 0.71 0.53 0.33 0.30 0.17 0.39 0.35 0.49 0.69 0.96 1.57 1.15 0.72 0.35 0.22 0.22 0.39 1.06 1.00 1.02 1.40 1.50 0.95 0.61 0.57 0.56 0.55 0.58 0.59 0.34 0.24
0.94 0.87 0.85 1.06 1.37 1.83 2.26 2.08 1.91 2.07 2.68 2.01 0.94 0.82 0.60 0.59 0.59 0.31 0.34 0.61 0.94 1.39 1.28 1.17 0.65 0.28 0.33 0.21 0.19 0.55 0.34 0.44 0.84 1.29 1.34 1.60 1.16 1.29 0.99 0.72 0.41 0.30 0.17 0.23
1.05 0.98 1.10 1.54 1.88 2.48 4.58 5.57 2.83 1.78 2.13 3.24 1.69 0.91 0.81 0.94 0.86 0.63 0.31 0.49 1.15 1.90 1.80 0.86 0.32 0.16 0.66 0.76 0.30 0.10 0.02 0.15 0.47 0.50 0.61 0.89 1.08 0.78 0.40 0.42 0.48 0.27 0.10 0.08
1.17 1.20 1.62 1.92 2.33 3.33 4.54 3.24 1.89 1.30 2.17 4.46 2.64 1.23 1.00 1.12 0.99 0.82 0.57 0.61 0.94 1.42 2.13 1.40 0.47 0.25 0.91 0.89 0.28 0.07 0.01 0.05 0.12 0.12 0.19 0.31 0.27 0.27 0.19 0.18 0.26 0.20 0.12 0.07
1.47 1.68 2.02 2.55 3.94 4.35 2.85 1.77 1.69 1.35 2.25 3.00 2.87 1.61 1.51 1.54 1.17 1.03 0.64 0.75 1.07 1.27 1.32 1.05 0.78 0.62 0.92 0.79 0.11 0.00 0.00 0.01 0.02 0.02 0.06 0.16 0.10 0.07 0.10 0.07 0.08 0.05 0.07 0.12
2.15 2.97 4.33 6.20 6.07 4.28 2.34 2.37 2.72 2.23 2.60 2.77 1.75 1.64 2.05 2.18 1.72 1.36 1.46 1.28 1.53 1.09 0.89 0.53 0.88 0.94 0.89 0.31 0.05 0.02 0.02 0.03 0.02 0.01 0.01 0.03 0.05 0.06 0.08 0.06 0.06 0.08 0.08 0.03
4.24 6.51 7.88 7.46 3.95 2.04 2.63 4.72 5.27 4.47 3.12 2.11 1.16 1.14 1.95 2.20 2.22 1.92 2.08 1.86 1.20 1.06 0.39 0.47 0.74 0.53 0.25 0.13 0.16 0.04 0.02 0.01 0.01 0.01 0.03 0.05 0.06 0.09 0.09 0.07 0.05 0.03 0.03 0.03
6.25 5.63 4.18 3.25 2.61 2.58 3.64 4.12 3.36 2.38 1.49 0.71 0.32 0.47 1.25 1.79 2.03 1.71 1.70 2.20 1.37 0.82 0.44 0.72 0.67 0.41 0.26 0.23 0.20 0.09 0.03 0.02 0.01 0.01 0.03 0.07 0.12 0.07 0.01 0.01 0.01 0.03 0.05 0.08
3.02 2.45 2.62 3.20 3.16 2.96 2.65 2.27 1.59 0.76 0.31 0.18 0.20 0.32 0.78 1.66 1.94 1.90 1.66 1.33 1.52 0.82 0.59 0.97 0.69 0.31 0.08 0.06 0.07 0.10 0.12 0.07 0.07 0.10 0.10 0.06 0.02 0.03 0.03 0.03 0.05 0.09 0.15 0.23
2.60 2.70 3.20 3.11 2.86 2.25 1.52 0.95 0.52 0.28 0.21 0.22 0.28 0.57 0.61 1.11 1.62 1.98 1.76 1.35 1.03 0.78 0.83 0.48 0.21 0.13 0.09 0.05 0.03 0.05 0.08 0.15 0.07 0.04 0.04 0.04 0.05 0.06 0.08 0.12 0.20 0.26 0.36 0.47
3.12 3.27 3.03 2.27 1.76 1.11 0.67 0.31 0.22 0.23 0.22 0.21 0.32 0.65 0.85 1.03 1.12 1.36 1.58 1.58 0.97 1.07 0.63 0.36 0.31 0.20 0.16 0.14 0.10 0.04 0.04 0.15 0.42 0.26 0.10 0.11 0.14 0.18 0.28 0.38 0.44 0.39 0.50 0.67
2.21 1.44 1.44 1.18 0.87 0.68 0.59 0.34 0.22 0.21 0.22 0.26 0.55 0.86 1.09 1.34 1.47 1.14 0.99 1.30 1.20 0.80 0.64 0.66 0.57 0.28 0.17 0.16 0.18 0.21 0.23 0.25 0.37 0.59 0.61 0.50 0.46 0.47 0.58 0.63 0.61 0.46 0.51 0.56
1.08 0.95 1.05 0.83 0.66 0.78 0.60 0.47 0.48 0.46 0.54 0.68 1.08 1.44 1.32 1.49 1.14 1.11 0.82 0.75 0.66 0.74 0.52 0.48 0.37 0.39 0.36 0.35 0.36 0.44 0.51 0.60 0.69 0.79 0.85 0.88 0.78 0.68 0.79 0.86 0.75 0.74 0.62 0.67
0.79 0.86 0.81 0.66 0.68 0.86 0.72 0.60 0.60 0.58 0.73 0.92 1.04 1.15 1.09 1.03 0.83 0.75 0.57 0.64 0.54 0.43 0.46 0.52 0.48 0.45 0.49 0.54 0.55 0.64 0.61 0.61 0.69 0.78 0.70 0.76 0.78 0.65 0.50 0.60 0.76 0.65 0.62 0.55

GFSNW_prec_precacc_180.txt.gz
Total_Precipitation_Accumulation
0.80 0.74 0.75 0.81 0.83 1.18 2.08 2.52 2.39 1.10 1.50 1.97 1.44 0.77 0.20 0.09 0.01 0.01 0.02 0.03 0.05 0.05 0.03 0.03 0.05 0.08 0.08 0.05 0.05 0.03 0.04 0.16 0.09 0.02 0.02 0.07 0.16 0.35 0.64 0.94 0.68 0.45 0.44 0.18
0.84 0.90 0.92 0.97 1.09 1.51 1.98 3.14 2.07 2.04 2.63 2.63 1.23 0.29 0.11 0.05 0.01 0.04 0.14 0.10 0.04 0.04 0.05 0.15 0.05 0.05 0.01 0.07 0.21 0.27 0.28 0.67 0.58 0.13 0.12 0.16 0.16 0.16 0.29 0.51 0.62 0.47 0.60 0.21
0.97 0.95 1.10 1.07 1.26 1.87 3.13 3.16 2.68 2.94 2.90 1.57 0.97 0.64 0.39 0.20 0.05 0.04 0.16 0.46 0.24 0.17 0.18 0.20 0.18 0.12 0.05 0.04 0.16 0.17 0.43 0.56 0.49 0.37 0.18 0.21 0.25 0.17 0.17 0.39 0.66 0.31 0.23 0.15
1.11 1.09 1.31 1.24 1.32 2.25 4.75 5.27 2.24 1.03 1.41 1.08 0.58 0.55 0.56 0.34 0.25 0.11 0.15 0.26 0.49 0.73 0.72 0.35 0.31 0.26 0.24 0.11 0.13 0.23 0.45 0.65 0.15 0.08 0.02 0.05 0.14 0.16 0.12 0.22 0.30 0.51 0.21 0.21
1.25 1.29 1.51 1.61 1.70 3.13 5.82 4.97 1.76 0.73 0.29 0.20 0.45 0.66 0.62 0.32 0.17 0.32 0.36 0.40 0.25 0.38 0.89 1.01 0.73 0.66 0.78 0.60 0.47 0.65 0.78 1.00 0.46 0.34 0.03 0.01 0.04 0.08 0.09 0.06 0.06 0.11 0.13 0.13
1.21 1.25 1.59 1.76 2.26 4.17 6.89 3.63 1.19 1.06 0.78 0.34 0.43 0.47 0.39 0.36 0.56 0.45 0.29 0.64 0.78 0.51 0.39 0.42 0.37 0.47 0.56 0.64 0.68 0.90 1.04 0.87 0.78 0.56 0.06 0.15 0.43 0.10 0.05 0.16 0.24 0.19 0.18 0.13
1.09 1.19 1.47 1.88 2.29 3.44 3.97 2.17 1.39 2.31 1.43 0.51 0.23 0.09 0.20 0.35 0.34 0.44 0.31 0.30 0.42 0.28 0.21 0.37 0.27 0.34 0.44 0.45 0.54 0.76 0.88 0.83 1.11 0.78 0.38 0.87 0.31 0.04 0.04 0.20 0.14 0.07 0.11 0.06
1.00 1.16 1.39 1.68 1.98 2.54 2.79 1.99 2.09 2.52 1.66 0.46 0.24 0.23 0.25 0.14 0.21 0.20 0.14 0.22 0.19 0.32 0.49 0.93 0.94 0.68 0.64 0.46 0.32 0.31 0.46 0.74 1.25 1.05 0.72 0.39 0.11 0.09 0.13 0.19 0.33 0.21 0.17 0.12
0.97 1.01 1.32 1.47 1.60 2.11 2.67 2.20 1.74 2.57 2.93 1.06 0.36 0.29 0.19 0.23 0.30 0.34 0.20 0.12 0.31 0.61 0.79 1.00 0.97 0.81 0.68 0.57 0.56 0.22 0.31 0.48 1.11 1.00 0.87 0.42 0.22 0.16 0.07 0.17 0.64 0.73 0.40 0.34
1.02 0.91 1.03 1.39 1.41 1.81 2.46 2.46 1.84 2.81 2.91 0.81 0.67 0.89 0.59 0.28 0.31 0.47 0.35 0.40 0.52 0.90 1.28 1.25 0.71 0.38 0.25 0.36 0.74 1.02 0.87 1.38 1.75 1.23 1.55 0.77 0.20 0.07 0.10 0.57 1.17 0.87 0.80 1.00
0.95 0.83 0.89 1.15 1.31 1.58 2.33 2.20 1.81 2.51 2.71 0.85 0.87 0.88 0.67 0.62 0.70 0.70 0.62 1.00 0.98 1.21 1.31 0.96 0.58 0.49 0.31 0.35 0.30 1.06 1.51 1.56 1.22 1.32 1.64 1.01 0.24 0.42 0.89 0.98 0.58 0.76 1.26 1.50
0.88 0.78 0.87 0.92 1.02 1.37 2.28 2.32 1.71 2.00 3.37 1.74 0.81 0.68 0.41 0.42 0.39 0.72 0.78 0.90 0.85 1.29 1.48 1.15 0.85 0.67 0.58 0.37 0.46 0.92 1.36 1.28 1.31 1.02 0.84 0.51 0.36 0.62 0.81 0.69 0.75 0.87 0.77 0.80
0.91 0.81 0.82 0.90 0.91 1.27 2.04 2.00 1.92 2.70 3.94 2.50 1.04 0.58 0.32 0.28 0.22 0.46 1.27 0.68 0.54 0.73 1.07 1.50 1.16 0.83 0.47 0.53 0.52 0.71 0.97 0.97 1.53 1.12 0.66 0.37 0.54 0.41 0.54 0.80 0.73 0.46 0.43 0.42
0.96 0.84 0.80 0.85 1.13 1.42 1.86 2.05 2.18 2.76 3.83 2.68 1.24 0.72 0.54 0.35 0.32 0.19 0.45 0.48 0.74 1.09 1.42 2.05 1.44 0.87 0.41 0.27 0.24 0.40 1.06 1.01 1.06 1.43 1.51 0.96 0.62 0.58 0.60 0.64 0.61 0.61 0.34 0.25
0.94 0.87 0.88 1.10 1.42 1.88 2.33 2.12 1.94 2.11 2.79 2.17 0.99 0.83 0.61 0.61 0.61 0.33 0.36 0.66 1.02 1.66 1.80 1.59 0.93 0.39 0.38 0.22 0.19 0.55 0.34 0.45 0.88 1.31 1.34 1.61 1.16 1.30 1.02 0.87 0.49 0.31 0.17 0.23
1.05 0.99 1.12 1.57 1.92 2.52 4.61 5.60 2.86 1.81 2.23 3.46 1.75 0.91 0.81 0.95 0.86 0.64 0.33 0.51 1.19 2.02 1.94 0.99 0.35 0.17 0.72 0.77 0.30 0.10 0.02 0.15 0.47 0.50 0.62 0.95 1.25 0.88 0.46 0.48 0.51 0.29 0.11 0.08
1.17 1.22 1.64 1.95 2.37 3.34 4.56 3.29 1.93 1.36 2.36 4.74 2.70 1.23 1.00 1.14 1.00 0.83 0.60 0.64 0.96 1.51 2.20 1.41 0.47 0.25 0.95 0.90 0.28 0.07 0.01 0.05 0.12 0.13 0.23 0.36 0.34 0.35 0.22 0.21 0.29 0.21 0.17 0.12
1.47 1.69 2.04 2.57 3.96 4.36 2.85 1.77 1.70 1.38 2.40 3.28 3.01 1.61 1.51 1.54 1.18 1.04 0.67 0.79 1.15 1.32 1.35 1.05 0.78 0.63 0.94 0.81 0.11 0.00 0.00 0.01 0.02 0.02 0.08 0.17 0.11 0.08 0.11 0.08 0.09 0.06 0.09 0.15
2.17 2.99 4.35 6.21 6.08 4.29 2.34 2.38 2.74 2.26 2.63 2.81 1.77 1.64 2.05 2.19 1.76 1.41 1.47 1.30 1.54 1.10 0.90 0.53 0.88 0.94 0.90 0.31 0.05 0.02 0.02 0.03 0.02 0.02 0.02 0.03 0.05 0.07 0.09 0.06 0.08 0.10 0.08 0.03
4.26 6.51 7.89 7.47 3.97 2.06 2.70 4.77 5.32 4.53 3.16 2.14 1.16 1.14 1.95 2.27 2.35 2.00 2.12 1.87 1.21 1.07 0.40 0.47 0.75 0.53 0.25 0.14 0.17 0.05 0.02 0.01 0.01 0.02 0.03 0.05 0.06 0.09 0.09 0.08 0.05 0.03 0.03 0.03
6.26 5.64 4.19 3.27 2.67 2.63 3.70 4.18 3.40 2.39 1.51 0.72 0.33 0.47 1.25 1.79 2.12 1.83 1.81 2.27 1.41 0.86 0.46 0.75 0.71 0.41 0.26 0.23 0.21 0.10 0.04 0.02 0.01 0.02 0.03 0.07 0.13 0.07 0.01 0.01 0.01 0.03 0.05 0.08
3.03 2.47 2.67 3.23 3.22 3.06 2.69 2.30 1.61 0.77 0.31 0.20 0.24 0.36 0.81 1.67 1.95 1.96 1.86 1.52 1.63 0.87 0.62 1.09 0.76 0.33 0.11 0.07 0.09 0.11 0.13 0.08 0.08 0.10 0.10 0.06 0.03 0.04 0.03 0.04 0.06 0.09 0.15 0.23
2.61 2.72 3.22 3.17 2.99 2.34 1.57 0.97 0.56 0.39 0.32 0.34 0.57 0.90 0.91 1.31 1.74 2.10 1.78 1.40 1.07 0.85 0.92 0.55 0.26 0.16 0.11 0.08 0.07 0.07 0.09 0.15 0.07 0.04 0.04 0.06 0.09 0.11 0.09 0.12 0.20 0.26 0.36 0.47
3.16 3.28 3.05 2.34 1.83 1.12 0.68 0.34 0.34 0.45 0.39 0.31 0.50 0.98 1.15 1.22 1.36 1.53 1.65 1.64 1.03 1.14 0.66 0.46 0.36 0.21 0.17 0.18 0.13 0.09 0.14 0.16 0.42 0.27 0.11 0.12 0.16 0.21 0.28 0.38 0.44 0.39 0.50 0.67
2.24 1.55 1.48 1.19 0.89 0.71 0.65 0.41 0.29 0.27 0.26 0.30 0.64 1.08 1.32 1.58 1.66 1.24 1.09 1.42 1.25 0.84 0.78 0.80 0.58 0.28 0.17 0.17 0.19 0.22 0.33 0.30 0.38 0.59 0.62 0.50 0.46 0.47 0.58 0.63 0.61 0.46 0.51 0.56
1.10 0.98 1.06 0.86 0.70 0.82 0.63 0.49 0.48 0.46 0.54 0.70 1.13 1.68 1.49 1.66 1.23 1.22 0.88 0.81 0.72 0.89 0.58 0.48 0.37 0.39 0.36 0.37 0.44 0.48 0.58 0.61 0.70 0.79 0.85 0.88 0.78 0.68 0.79 0.86 0.75 0.74 0.62 0.67
0.80 0.87 0.82 0.66 0.68 0.86 0.72 0.61 0.60 0.58 0.73 0.93 1.08 1.30 1.17 1.14 0.84 0.76 0.57 0.67 0.59 0.44 0.46 0.52 0.48 0.45 0.49 0.55 0.58 0.66 0.61 0.61 0.69 0.78 0.70 0.76 0.78 0.65 0.50 0.60 0.76 0.65 0.62 0.55

GFSNW_prec_precacc_183.txt.gz
Total_Precipitation_Accumulation
0.80 0.74 0.75 0.81 0.83 1.18 2.08 2.52 2.40 1.10 1.51 1.98 1.44 0.77 0.20 0.09 0.01 0.01 0.02 0.03 0.05 0.05 0.03 0.03 0.05 0.08 0.08 0.05 0.05 0.03 0.05 0.18 0.10 0.02 0.02 0.07 0.16 0.35 0.65 0.96 0.71 0.45 0.44 0.18
0.85 0.91 0.92 0.97 1.09 1.51 1.98 3.14 2.07 2.04 2.68 2.63 1.23 0.29 0.11 0.05 0.01 0.04 0.14 0.10 0.04 0.04 0.05 0.15 0.05 0.05 0.01 0.07 0.21 0.27 0.29 0.67 0.58 0.13 0.12 0.16 0.16 0.17 0.35 0.62 0.74 0.50 0.63 0.22
0.97 0.95 1.10 1.07 1.26 1.87 3.13 3.17 2.68 2.94 2.91 1.63 0.99 0.64 0.39 0.20 0.05 0.04 0.17 0.46 0.24 0.17 0.18 0.20 0.18 0.12 0.05 0.04 0.16 0.17 0.44 0.56 0.49 0.38 0.18 0.21 0.25 0.17 0.19 0.50 0.80 0.38 0.26 0.16
1.11 1.09 1.31 1.24 1.32 2.26 4.75 5.28 2.25 1.03 1.41 1.10 0.66 0.59 0.57 0.34 0.25 0.12 0.16 0.26 0.49 0.73 0.72 0.35 0.31 0.26 0.24 0.11 0.13 0.23 0.46 0.65 0.15 0.08 0.03 0.06 0.15 0.16 0.13 0.31 0.43 0.66 0.25 0.21
1.25 1.29 1.52 1.63 1.72 3.14 5.82 4.97 1.76 0.73 0.30 0.20 0.45 0.67 0.63 0.33 0.17 0.32 0.36 0.40 0.25 0.38 0.89 1.01 0.73 0.66 0.78 0.60 0.47 0.65 0.78 1.01 0.47 0.34 0.03 0.02 0.07 0.10 0.09 0.06 0.07 0.13 0.15 0.16
1.21 1.26 1.60 1.77 2.28 4.17 6.89 3.63 1.19 1.06 0.78 0.34 0.43 0.47 0.39 0.36 0.56 0.46 0.29 0.65 0.78 0.51 0.39 0.42 0.37 0.48 0.56 0.64 0.68 0.90 1.04 0.87 0.78 0.56 0.06 0.15 0.44 0.10 0.05 0.16 0.24 0.19 0.19 0.15
1.09 1.19 1.48 1.88 2.30 3.44 3.97 2.17 1.39 2.31 1.43 0.51 0.23 0.09 0.20 0.35 0.34 0.44 0.31 0.30 0.42 0.28 0.21 0.37 0.27 0.34 0.44 0.45 0.54 0.76 0.88 0.83 1.11 0.78 0.38 0.89 0.31 0.04 0.04 0.20 0.14 0.07 0.11 0.06
1.01 1.16 1.39 1.68 1.98 2.54 2.79 1.99 2.09 2.53 1.67 0.46 0.24 0.23 0.25 0.14 0.21 0.20 0.14 0.22 0.19 0.32 0.49 0.93 0.94 0.68 0.64 0.46 0.32 0.31 0.46 0.75 1.27 1.07 0.73 0.40 0.12 0.09 0.13 0.19 0.33 0.21 0.18 0.12
0.99 1.03 1.33 1.48 1.61 2.12 2.67 2.20 1.74 2.57 2.93 1.06 0.36 0.29 0.19 0.23 0.30 0.34 0.20 0.12 0.31 0.61 0.79 1.00 0.97 0.81 0.68 0.57 0.56 0.22 0.32 0.49 1.18 1.08 0.95 0.46 0.23 0.16 0.07 0.18 0.65 0.73 0.41 0.36
1.04 0.93 1.04 1.40 1.44 1.84 2.46 2.46 1.84 2.81 2.91 0.81 0.67 0.89 0.59 0.28 0.31 0.47 0.35 0.40 0.52 0.90 1.28 1.25 0.71 0.38 0.25 0.36 0.74 1.02 0.88 1.39 1.77 1.29 1.67 0.89 0.24 0.08 0.11 0.59 1.18 0.88 0.82 1.02
0.95 0.83 0.89 1.16 1.32 1.62 2.36 2.21 1.81 2.51 2.71 0.85 0.87 0.88 0.67 0.62 0.70 0.70 0.62 1.00 0.98 1.21 1.31 0.96 0.58 0.49 0.31 0.35 0.30 1.06 1.51 1.56 1.22 1.32 1.68 1.09 0.27 0.43 0.92 1.00 0.59 0.77 1.27 1.50
0.88 0.78 0.88 0.94 1.05 1.42 2.36 2.40 1.72 2.02 3.41 1.75 0.81 0.68 0.41 0.42 0.39 0.72 0.78 0.90 0.85 1.29 1.48 1.15 0.86 0.68 0.59 0.38 0.47 0.93 1.36 1.28 1.31 1.03 0.85 0.51 0.37 0.63 0.81 0.70 0.76 0.87 0.77 0.80
0.91 0.82 0.84 0.94 0.95 1.32 2.16 2.08 1.95 2.77 4.08 2.54 1.04 0.58 0.32 0.28 0.22 0.46 1.27 0.68 0.54 0.73 1.07 1.51 1.17 0.84 0.47 0.53 0.53 0.72 0.97 0.99 1.54 1.14 0.66 0.37 0.54 0.41 0.54 0.80 0.73 0.46 0.43 0.42
0.97 0.85 0.81 0.88 1.18 1.48 1.90 2.06 2.19 2.79 3.89 2.69 1.24 0.72 0.54 0.35 0.32 0.19 0.45 0.48 0.74 1.10 1.45 2.15 1.51 0.90 0.45 0.30 0.26 0.42 1.06 1.02 1.06 1.43 1.51 0.96 0.62 0.58 0.60 0.64 0.61 0.61 0.34 0.25
0.94 0.88 0.89 1.11 1.44 1.93 2.36 2.13 1.95 2.12 2.81 2.18 0.99 0.83 0.61 0.61 0.61 0.33 0.36 0.66 1.03 1.71 1.92 1.71 1.01 0.46 0.46 0.30 0.25 0.58 0.34 0.45 0.88 1.31 1.34 1.61 1.16 1.30 1.02 0.87 0.49 0.31 0.17 0.23
1.07 1.00 1.12 1.57 1.93 2.53 4.61 5.60 2.86 1.81 2.25 3.49 1.76 0.91 0.81 0.95 0.86 0.64 0.33 0.51 1.22 2.19 2.17 1.15 0.52 0.30 0.89 0.88 0.31 0.10 0.02 0.15 0.47 0.50 0.62 0.95 1.25 0.88 0.46 0.48 0.51 0.29 0.11 0.08
1.19 1.22 1.64 1.96 2.38 3.34 4.56 3.29 1.94 1.38 2.40 4.95 2.83 1.23 1.00 1.15 1.00 0.84 0.60 0.64 0.97 1.54 2.26 1.44 0.47 0.26 1.03 0.93 0.28 0.07 0.01 0.05 0.12 0.13 0.23 0.36 0.34 0.35 0.22 0.21 0.30 0.22 0.18 0.12
1.48 1.69 2.04 2.58 3.97 4.36 2.85 1.77 1.70 1.38 2.40 3.29 3.03 1.62 1.51 1.54 1.19 1.05 0.68 0.81 1.16 1.32 1.35 1.05 0.78 0.63 0.95 0.82 0.11 0.00 0.00 0.01 0.02 0.02 0.08 0.17 0.11 0.08 0.11 0.09 0.09 0.06 0.09 0.15
2.17 3.00 4.35 6.21 6.08 4.29 2.34 2.38 2.74 2.26 2.64 2.84 1.78 1.64 2.05 2.19 1.76 1.41 1.48 1.30 1.54 1.10 0.90 0.53 0.88 0.94 0.91 0.31 0.05 0.02 0.02 0.03 0.02 0.02 0.02 0.03 0.05 0.07 0.09 0.08 0.09 0.10 0.08 0.03
4.27 6.51 7.89 7.47 3.97 2.06 2.70 4.78 5.33 4.54 3.18 2.16 1.17 1.14 1.95 2.27 2.35 2.00 2.12 1.87 1.21 1.08 0.40 0.47 0.75 0.53 0.25 0.14 0.17 0.05 0.02 0.01 0.01 0.02 0.03 0.05 0.06 0.09 0.09 0.09 0.05 0.03 0.03 0.03
6.26 5.64 4.19 3.27 2.67 2.64 3.70 4.19 3.42 2.40 1.53 0.73 0.33 0.47 1.25 1.79 2.12 1.83 1.81 2.27 1.41 0.87 0.46 0.75 0.71 0.41 0.26 0.23 0.21 0.11 0.10 0.13 0.11 0.07 0.04 0.07 0.13 0.07 0.01 0.01 0.01 0.03 0.05 0.08
3.03 2.47 2.67 3.23 3.22 3.07 2.70 2.31 1.64 0.80 0.33 0.20 0.26 0.40 0.85 1.69 1.97 1.98 1.86 1.52 1.64 0.87 0.62 1.11 0.76 0.33 0.11 0.08 0.10 0.13 0.16 0.12 0.12 0.13 0.11 0.06 0.03 0.04 0.03 0.04 0.06 0.09 0.16 0.25
2.61 2.72 3.22 3.17 3.00 2.38 1.61 0.98 0.58 0.43 0.37 0.37 0.63 1.02 1.04 1.45 1.90 2.22 1.81 1.44 1.08 0.85 0.94 0.58 0.28 0.17 0.11 0.08 0.07 0.07 0.15 0.20 0.08 0.04 0.04 0.06 0.09 0.11 0.11 0.13 0.20 0.27 0.37 0.48
3.16 3.28 3.05 2.34 1.84 1.14 0.68 0.36 0.41 0.52 0.44 0.31 0.54 1.12 1.27 1.28 1.49 1.60 1.69 1.64 1.04 1.17 0.68 0.50 0.37 0.21 0.17 0.18 0.13 0.10 0.18 0.19 0.42 0.27 0.11 0.12 0.16 0.24 0.35 0.40 0.44 0.39 0.50 0.67
2.24 1.55 1.49 1.19 0.89 0.71 0.65 0.41 0.29 0.28 0.26 0.33 0.80 1.17 1.40 1.66 1.72 1.27 1.12 1.46 1.30 0.86 0.84 0.82 0.58 0.28 0.17 0.17 0.19 0.23 0.35 0.42 0.39 0.59 0.62 0.50 0.47 0.49 0.61 0.63 0.61 0.46 0.51 0.56
1.10 0.98 1.06 0.86 0.70 0.82 0.63 0.49 0.48 0.46 0.55 0.73 1.19 1.74 1.56 1.76 1.27 1.27 0.93 0.84 0.74 0.94 0.61 0.48 0.37 0.39 0.36 0.37 0.44 0.49 0.64 0.71 0.79 0.85 0.88 0.91 0.78 0.68 0.79 0.86 0.75 0.74 0.62 0.67
0.80 0.87 0.82 0.66 0.68 0.86 0.72 0.61 0.60 0.58 0.75 0.95 1.09 1.34 1.27 1.25 0.87 0.76 0.57 0.68 0.61 0.45 0.46 0.52 0.48 0.45 0.49 0.55 0.59 0.67 0.66 0.61 0.69 0.78 0.70 0.76 0.78 0.65 0.50 0.60 0.76 0.65 0.62 0.55

GFSNW_prec_precacc_186.txt.gz
Total_Precipitation_Accumulation
0.81 0.74 0.75 0.81 0.83 1.18 2.08 2.52 2.40 1.10 1.51 1.98 1.45 0.77 0.20 0.09 0.01 0.01 0.02 0.03 0.05 0.05 0.03 0.04 0.05 0.08 0.08 0.05 0.05 0.03 0.06 0.19 0.10 0.02 0.02 0.07 0.16 0.35 0.66 1.03 0.79 0.49 0.47 0.19
0.85 0.91 0.92 0.97 1.09 1.51 1.98 3.14 2.07 2.04 2.70 2.63 1.23 0.29 0.11 0.05 0.01 0.04 0.14 0.10 0.04 0.04 0.05 0.15 0.05 0.05 0.01 0.07 0.21 0.28 0.31 0.70 0.60 0.14 0.12 0.16 0.19 0.23 0.43 0.72 0.83 0.55 0.67 0.22
0.97 0.95 1.10 1.07 1.27 1.87 3.13 3.17 2.68 2.94 2.92 1.68 0.99 0.64 0.40 0.20 0.05 0.04 0.17 0.46 0.24 0.17 0.18 0.20 0.18 0.12 0.05 0.04 0.16 0.17 0.44 0.57 0.51 0.39 0.18 0.22 0.25 0.18 0.21 0.56 0.88 0.39 0.28 0.16
1.11 1.10 1.32 1.25 1.33 2.27 4.75 5.28 2.25 1.03 1.41 1.11 0.71 0.64 0.60 0.34 0.26 0.12 0.17 0.27 0.50 0.75 0.73 0.35 0.31 0.26 0.24 0.11 0.13 0.23 0.46 0.65 0.16 0.08 0.03 0.07 0.15 0.16 0.13 0.31 0.44 0.73 0.27 0.22
1.26 1.30 1.53 1.63 1.72 3.14 5.82 4.97 1.76 0.73 0.30 0.20 0.45 0.69 0.68 0.39 0.24 0.34 0.37 0.41 0.25 0.38 0.89 1.01 0.73 0.66 0.78 0.60 0.47 0.65 0.78 1.01 0.47 0.34 0.03 0.02 0.07 0.10 0.09 0.06 0.07 0.14 0.15 0.16
1.21 1.26 1.61 1.79 2.29 4.17 6.89 3.63 1.19 1.06 0.78 0.34 0.43 0.47 0.40 0.39 0.58 0.46 0.30 0.65 0.78 0.51 0.39 0.42 0.37 0.48 0.56 0.64 0.68 0.90 1.04 0.87 0.78 0.56 0.06 0.15 0.44 0.10 0.05 0.16 0.24 0.19 0.19 0.15
1.09 1.19 1.48 1.89 2.31 3.44 3.97 2.17 1.39 2.31 1.43 0.51 0.23 0.09 0.20 0.35 0.34 0.44 0.31 0.30 0.42 0.28 0.21 0.37 0.27 0.34 0.44 0.45 0.54 0.76 0.88 0.83 1.11 0.78 0.38 0.89 0.31 0.04 0.04 0.20 0.14 0.07 0.11 0.06
1.01 1.16 1.39 1.68 1.98 2.54 2.79 1.99 2.09 2.53 1.67 0.46 0.24 0.23 0.25 0.14 0.21 0.20 0.14 0.22 0.19 0.32 0.49 0.93 0.94 0.68 0.64 0.46 0.32 0.31 0.46 0.75 1.27 1.07 0.73 0.40 0.12 0.09 0.13 0.19 0.33 0.21 0.18 0.12
1.00 1.04 1.34 1.48 1.61 2.12 2.67 2.20 1.74 2.57 2.93 1.06 0.36 0.29 0.19 0.23 0.30 0.34 0.20 0.12 0.31 0.61 0.79 1.01 0.97 0.81 0.68 0.57 0.56 0.22 0.32 0.49 1.20 1.10 0.99 0.48 0.23 0.16 0.07 0.18 0.66 0.73 0.41 0.36
1.04 0.93 1.05 1.42 1.46 1.86 2.46 2.46 1.84 2.81 2.91 0.81 0.67 0.89 0.59 0.28 0.31 0.47 0.35 0.40 0.52 0.90 1.28 1.25 0.71 0.38 0.25 0.36 0.74 1.02 0.88 1.39 1.78 1.29 1.69 0.90 0.24 0.08 0.11 0.62 1.19 0.89 0.85 1.04
0.95 0.84 0.90 1.18 1.36 1.67 2.38 2.21 1.81 2.51 2.71 0.85 0.87 0.88 0.67 0.62 0.70 0.70 0.62 1.00 0.98 1.21 1.31 0.96 0.58 0.49 0.31 0.35 0.30 1.06 1.51 1.56 1.22 1.32 1.68 1.09 0.27 0.43 0.93 1.01 0.60 0.77 1.28 1.51
0.88 0.78 0.88 0.95 1.06 1.46 2.41 2.42 1.72 2.03 3.44 1.75 0.81 0.68 0.41 0.42 0.39 0.72 0.78 0.90 0.85 1.29 1.48 1.16 0.87 0.69 0.59 0.38 0.47 0.93 1.36 1.28 1.31 1.03 0.85 0.51 0.38 0.65 0.83 0.71 0.76 0.87 0.77 0.80
0.91 0.83 0.84 0.95 0.98 1.39 2.24 2.21 2.12 3.01 4.29 2.60 1.05 0.58 0.32 0.28 0.22 0.46 1.27 0.68 0.54 0.73 1.07 1.51 1.17 0.84 0.47 0.53 0.53 0.73 0.97 0.99 1.55 1.14 0.67 0.37 0.54 0.41 0.54 0.80 0.73 0.46 0.43 0.42
0.97 0.85 0.82 0.91 1.21 1.54 1.97 2.11 2.23 2.83 3.97 2.74 1.24 0.72 0.54 0.35 0.32 0.19 0.45 0.48 0.74 1.10 1.47 2.21 1.56 0.92 0.45 0.30 0.27 0.42 1.06 1.02 1.06 1.43 1.51 0.96 0.62 0.58 0.60 0.64 0.61 0.61 0.34 0.25
0.94 0.89 0.91 1.13 1.45 1.95 2.38 2.14 1.95 2.12 2.86 2.21 0.99 0.83 0.61 0.61 0.61 0.33 0.36 0.66 1.03 1.72 2.01 1.84 1.07 0.46 0.47 0.31 0.26 0.58 0.34 0.45 0.89 1.32 1.34 1.61 1.16 1.30 1.02 0.87 0.49 0.31 0.17 0.23
1.08 1.03 1.15 1.58 1.93 2.53 4.61 5.60 2.86 1.81 2.25 3.52 1.76 0.91 0.81 0.95 0.86 0.64 0.33 0.51 1.22 2.22 2.30 1.28 0.58 0.31 1.00 1.11 0.37 0.10 0.02 0.15 0.47 0.50 0.62 0.95 1.25 0.88 0.46 0.48 0.51 0.29 0.11 0.08
1.21 1.25 1.66 1.97 2.39 3.34 4.56 3.29 1.94 1.38 2.44 5.02 2.85 1.23 1.01 1.16 1.01 0.84 0.60 0.65 0.97 1.55 2.29 1.50 0.49 0.28 1.14 1.08 0.31 0.07 0.01 0.05 0.12 0.13 0.23 0.36 0.34 0.35 0.22 0.21 0.30 0.22 0.19 0.13
1.49 1.71 2.05 2.58 3.98 4.36 2.85 1.77 1.72 1.39 2.42 3.30 3.04 1.62 1.51 1.54 1.19 1.05 0.68 0.81 1.16 1.33 1.36 1.06 0.78 0.64 0.98 0.85 0.11 0.00 0.00 0.01 0.02 0.02 0.08 0.17 0.11 0.08 0.11 0.09 0.09 0.06 0.09 0.16
2.18 3.00 4.35 6.21 6.08 4.29 2.34 2.38 2.74 2.27 2.64 2.84 1.79 1.65 2.05 2.19 1.76 1.41 1.48 1.30 1.54 1.11 0.91 0.53 0.89 0.95 0.93 0.31 0.05 0.02 0.02 0.03 0.02 0.02 0.02 0.03 0.05 0.07 0.09 0.08 0.09 0.10 0.08 0.04
4.27 6.51 7.89 7.47 3.97 2.06 2.70 4.78 5.34 4.57 3.22 2.18 1.18 1.14 1.95 2.27 2.35 2.00 2.12 1.87 1.21 1.08 0.40 0.48 0.76 0.53 0.25 0.14 0.17 0.05 0.02 0.01 0.01 0.03 0.03 0.05 0.07 0.09 0.09 0.09 0.06 0.03 0.04 0.04
6.26 5.64 4.19 3.27 2.67 2.64 3.70 4.19 3.44 2.41 1.55 0.74 0.33 0.47 1.26 1.80 2.12 1.85 1.82 2.27 1.41 0.89 0.46 0.75 0.72 0.42 0.27 0.26 0.22 0.12 0.11 0.14 0.12 0.09 0.06 0.08 0.14 0.07 0.01 0.01 0.02 0.03 0.05 0.08
3.03 2.47 2.67 3.23 3.23 3.08 2.72 2.33 1.66 0.86 0.35 0.21 0.28 0.42 0.90 1.72 2.03 2.09 1.92 1.56 1.66 0.89 0.63 1.18 0.78 0.34 0.15 0.09 0.10 0.14 0.16 0.13 0.17 0.17 0.14 0.07 0.03 0.04 0.03 0.04 0.06 0.10 0.17 0.26
2.61 2.72 3.22 3.18 3.00 2.39 1.64 0.99 0.59 0.48 0.39 0.39 0.69 1.11 1.14 1.54 2.03 2.36 1.87 1.48 1.10 0.87 1.00 0.62 0.33 0.18 0.11 0.08 0.07 0.07 0.15 0.26 0.13 0.06 0.04 0.06 0.09 0.12 0.11 0.13 0.21 0.28 0.42 0.53
3.16 3.28 3.05 2.34 1.84 1.14 0.68 0.36 0.41 0.54 0.48 0.33 0.59 1.30 1.44 1.36 1.60 1.66 1.73 1.65 1.06 1.20 0.72 0.55 0.39 0.21 0.17 0.18 0.13 0.10 0.20 0.24 0.44 0.27 0.11 0.12 0.16 0.24 0.35 0.42 0.47 0.46 0.55 0.70
2.24 1.56 1.49 1.19 0.89 0.71 0.65 0.41 0.29 0.28 0.26 0.36 0.96 1.34 1.53 1.75 1.80 1.31 1.15 1.51 1.36 0.89 0.88 0.89 0.58 0.28 0.17 0.17 0.19 0.23 0.38 0.45 0.41 0.59 0.62 0.50 0.47 0.49 0.63 0.68 0.66 0.50 0.52 0.56
1.10 0.98 1.07 0.86 0.70 0.82 0.63 0.49 0.48 0.46 0.55 0.74 1.22 1.79 1.61 1.88 1.34 1.34 1.00 0.89 0.77 1.02 0.71 0.50 0.37 0.39 0.36 0.37 0.44 0.49 0.66 0.76 0.93 0.98 0.97 0.99 0.80 0.68 0.80 0.88 0.76 0.74 0.62 0.67
0.80 0.87 0.82 0.66 0.68 0.86 0.72 0.61 0.60 0.58 0.76 0.96 1.09 1.35 1.29 1.30 0.97 0.80 0.58 0.73 0.74 0.55 0.47 0.52 0.48 0.45 0.49 0.55 0.59 0.67 0.69 0.62 0.69 0.78 0.71 0.81 0.78 0.65 0.50 0.60 0.76 0.65 0.62 0.55